Time,TemperatureF,DewpointF,PressureIn,WindDirection,WindDirectionDegrees,WindSpeedMPH,WindSpeedGustMPH,Humidity,HourlyPrecipIn,Conditions,Clouds,dailyrainin,SoftwareType,DateUTC
2013-02-05 08:45:00,23.8,11.9,30.00,ENE,59,0.0,0.0,60,0.00,,,0.00,Wunderground v.1.15,2013-02-05 13:45:00,
2013-02-05 08:50:00,23.9,12.0,30.00,ENE,59,0.0,0.0,60,0.00,,,0.00,Wunderground v.1.15,2013-02-05 13:50:00,
2013-02-05 08:55:00,24.0,12.1,30.00,ENE,59,0.0,0.0,60,0.00,,,0.00,Wunderground v.1.15,2013-02-05 13:55:00,
2013-02-05 09:00:00,24.0,12.1,29.99,ENE,59,1.0,1.0,60,0.00,,,0.00,Wunderground v.1.15,2013-02-05 14:00:00,
2013-02-05 09:05:00,24.1,12.2,30.00,ENE,59,1.0,1.0,60,0.00,,,0.00,Wunderground v.1.15,2013-02-05 14:05:00,
2013-02-05 09:10:00,24.2,12.3,30.00,ENE,59,1.0,1.0,60,0.00,,,0.00,Wunderground v.1.15,2013-02-05 14:10:00,
2013-02-05 09:20:00,24.3,12.0,30.00,ENE,59,1.0,1.0,59,0.00,,,0.00,Wunderground v.1.15,2013-02-05 14:20:00,
2013-02-05 09:25:00,24.4,12.1,30.00,ENE,59,0.0,1.0,59,0.00,,,0.00,Wunderground v.1.15,2013-02-05 14:25:00,
2013-02-05 09:35:00,24.7,12.4,30.00,ENE,59,1.0,2.0,59,0.00,,,0.00,Wunderground v.1.15,2013-02-05 14:35:00,
2013-02-05 09:45:00,24.7,12.0,30.00,ENE,59,1.0,2.0,58,0.00,,,0.00,Wunderground v.1.15,2013-02-05 14:45:00,
2013-02-05 09:50:00,24.8,12.1,30.00,ENE,59,1.0,1.0,58,0.00,,,0.00,Wunderground v.1.15,2013-02-05 14:50:00,
2013-02-05 10:00:00,25.2,12.1,30.01,ENE,59,1.0,1.0,57,0.00,,,0.00,Wunderground v.1.15,2013-02-05 15:00:00,
2013-02-05 10:10:00,25.4,11.9,30.01,ENE,59,1.0,1.0,56,0.00,,,0.00,Wunderground v.1.15,2013-02-05 15:10:00,
2013-02-05 10:15:00,25.4,11.9,30.01,ENE,59,1.0,1.0,56,0.00,,,0.00,Wunderground v.1.15,2013-02-05 15:15:00,
2013-02-05 10:25:00,25.7,11.7,30.01,ENE,59,1.0,1.0,55,0.00,,,0.00,Wunderground v.1.15,2013-02-05 15:25:00,
2013-02-05 10:30:00,25.5,12.0,30.00,ENE,59,1.0,1.0,56,0.00,,,0.00,Wunderground v.1.15,2013-02-05 15:30:00,
2013-02-05 10:35:00,25.6,12.1,30.00,ENE,59,1.0,1.0,56,0.00,,,0.00,Wunderground v.1.15,2013-02-05 15:35:00,
2013-02-05 10:45:00,26.0,12.0,30.00,ENE,59,1.0,2.0,55,0.00,,,0.00,Wunderground v.1.15,2013-02-05 15:45:00,
2013-02-05 10:55:00,26.1,11.7,30.00,ENE,59,2.0,3.0,54,0.00,,,0.00,Wunderground v.1.15,2013-02-05 15:55:00,
2013-02-05 11:05:00,25.8,11.8,30.00,ENE,59,2.0,2.0,55,0.00,,,0.00,Wunderground v.1.15,2013-02-05 16:05:00,
2013-02-05 11:10:00,25.8,11.4,29.99,ENE,59,1.0,1.0,54,0.00,,,0.00,Wunderground v.1.15,2013-02-05 16:10:00,
2013-02-05 11:15:00,25.8,12.2,29.99,ENE,59,1.0,2.0,56,0.00,,,0.00,Wunderground v.1.15,2013-02-05 16:15:00,
2013-02-05 11:25:00,26.3,11.9,29.99,ENE,59,1.0,1.0,54,0.00,,,0.00,Wunderground v.1.15,2013-02-05 16:25:00,
2013-02-05 11:35:00,26.6,12.6,29.99,ENE,59,0.0,1.0,55,0.00,,,0.00,Wunderground v.1.15,2013-02-05 16:35:00,
2013-02-05 11:45:00,26.9,12.5,29.99,ENE,59,1.0,3.0,54,0.00,,,0.00,Wunderground v.1.15,2013-02-05 16:45:00,
2013-02-05 11:55:00,26.9,12.0,29.98,ENE,59,2.0,2.0,53,0.00,,,0.00,Wunderground v.1.15,2013-02-05 16:55:00,
2013-02-05 12:00:00,26.8,12.4,29.98,ENE,59,1.0,1.0,54,0.00,,,0.00,Wunderground v.1.15,2013-02-05 17:00:00,
2013-02-05 12:10:00,26.9,12.5,29.98,ENE,59,1.0,1.0,54,0.00,,,0.00,Wunderground v.1.15,2013-02-05 17:10:00,
2013-02-05 12:20:00,26.8,12.8,29.97,ENE,59,1.0,2.0,55,0.00,,,0.00,Wunderground v.1.15,2013-02-05 17:20:00,
2013-02-05 12:25:00,26.8,12.4,29.98,ENE,59,1.0,2.0,54,0.00,,,0.00,Wunderground v.1.15,2013-02-05 17:25:00,
2013-02-05 12:35:00,27.0,13.4,29.98,ENE,59,0.0,2.0,56,0.00,,,0.00,Wunderground v.1.15,2013-02-05 17:35:00,
2013-02-05 12:45:00,27.0,13.4,29.97,NE,55,2.0,3.0,56,0.00,,,0.00,Wunderground v.1.15,2013-02-05 17:45:00,
2013-02-05 12:55:00,26.9,13.3,29.96,NE,55,1.0,1.0,56,0.00,,,0.00,Wunderground v.1.15,2013-02-05 17:55:00,
2013-02-05 13:00:00,26.9,13.3,29.96,NE,55,1.0,1.0,56,0.00,,,0.00,Wunderground v.1.15,2013-02-05 18:00:00,
2013-02-05 13:05:00,26.9,13.3,29.96,NE,55,1.0,1.0,56,0.00,,,0.00,Wunderground v.1.15,2013-02-05 18:05:00,
2013-02-05 13:10:00,26.9,14.1,29.96,NE,34,2.0,2.0,58,0.00,,,0.00,Wunderground v.1.15,2013-02-05 18:10:00,
2013-02-05 13:15:00,26.9,13.7,29.96,NE,34,1.0,2.0,57,0.00,,,0.00,Wunderground v.1.15,2013-02-05 18:15:00,
2013-02-05 13:25:00,26.7,13.5,29.95,WSW,246,2.0,2.0,57,0.00,,,0.00,Wunderground v.1.15,2013-02-05 18:25:00,
2013-02-05 13:35:00,26.8,14.0,29.95,West,265,2.0,2.0,58,0.00,,,0.00,Wunderground v.1.15,2013-02-05 18:35:00,
2013-02-05 13:40:00,26.8,13.6,29.95,West,265,1.0,1.0,57,0.00,,,0.00,Wunderground v.1.15,2013-02-05 18:40:00,
2013-02-05 13:45:00,26.9,13.7,29.95,NNW,346,1.0,1.0,57,0.00,,,0.00,Wunderground v.1.15,2013-02-05 18:45:00,
2013-02-05 13:55:00,27.1,13.9,29.95,NW,312,1.0,2.0,57,0.00,,,0.00,Wunderground v.1.15,2013-02-05 18:55:00,
2013-02-05 14:05:00,26.9,14.1,29.96,WNW,296,3.0,3.0,58,0.00,,,0.00,Wunderground v.1.15,2013-02-05 19:05:00,
2013-02-05 14:15:00,26.9,14.9,29.96,West,267,2.0,3.0,60,0.00,,,0.00,Wunderground v.1.15,2013-02-05 19:15:00,
2013-02-05 14:20:00,27.0,14.9,29.96,West,266,2.0,3.0,60,0.00,,,0.00,Wunderground v.1.15,2013-02-05 19:20:00,
2013-02-05 14:25:00,27.0,14.6,29.96,WNW,291,2.0,3.0,59,0.00,,,0.00,Wunderground v.1.15,2013-02-05 19:25:00,
2013-02-05 14:35:00,27.1,14.7,29.95,SSW,209,2.0,2.0,59,0.00,,,0.00,Wunderground v.1.15,2013-02-05 19:35:00,
2013-02-05 14:45:00,27.0,14.6,29.95,West,273,2.0,2.0,59,0.00,,,0.00,Wunderground v.1.15,2013-02-05 19:45:00,
2013-02-05 14:55:00,26.9,15.2,29.95,SW,234,1.0,3.0,61,0.00,,,0.00,Wunderground v.1.15,2013-02-05 19:55:00,
2013-02-05 15:00:00,27.0,14.9,29.95,SW,234,2.0,2.0,60,0.00,,,0.00,Wunderground v.1.15,2013-02-05 20:00:00,
2013-02-05 15:05:00,27.0,14.9,29.95,WSW,255,2.0,2.0,60,0.00,,,0.00,Wunderground v.1.15,2013-02-05 20:05:00,
2013-02-05 15:10:00,27.0,15.3,29.95,WSW,255,1.0,4.0,61,0.00,,,0.00,Wunderground v.1.15,2013-02-05 20:10:00,
2013-02-05 15:20:00,27.0,15.7,29.94,West,273,2.0,2.0,62,0.00,,,0.00,Wunderground v.1.15,2013-02-05 20:20:00,